QPF
0.21 0.21 0.16 0.14 0.10 0.09 0.13 0.13 0.09 0.12 0.14 0.12 0.12 0.12 0.10 0.06 0.04 0.04 0.09 0.13 0.08 0.06 0.05 0.04 0.03 0.04 0.05 0.06 0.09 0.11 0.12 0.14 0.13 0.11 0.07 0.03 0.02 0.03 0.02 0.01 0.00 0.00 0.00
0.26 0.30 0.29 0.25 0.17 0.11 0.12 0.19 0.19 0.22 0.20 0.17 0.10 0.11 0.11 0.12 0.12 0.09 0.10 0.19 0.14 0.07 0.05 0.05 0.05 0.05 0.06 0.06 0.07 0.08 0.10 0.12 0.12 0.11 0.10 0.07 0.05 0.04 0.04 0.02 0.01 0.01 0.00
0.20 0.24 0.25 0.26 0.23 0.20 0.20 0.25 0.29 0.33 0.24 0.20 0.17 0.17 0.17 0.18 0.19 0.22 0.20 0.19 0.16 0.09 0.05 0.04 0.04 0.05 0.06 0.06 0.07 0.07 0.08 0.10 0.10 0.09 0.08 0.08 0.06 0.04 0.03 0.03 0.02 0.01 0.00
0.14 0.19 0.22 0.25 0.30 0.32 0.33 0.35 0.37 0.41 0.36 0.29 0.26 0.21 0.25 0.25 0.21 0.24 0.20 0.16 0.14 0.11 0.11 0.06 0.04 0.05 0.05 0.05 0.07 0.07 0.06 0.05 0.06 0.05 0.04 0.05 0.05 0.04 0.03 0.03 0.03 0.02 0.01
0.12 0.16 0.20 0.25 0.33 0.34 0.35 0.33 0.38 0.41 0.37 0.32 0.27 0.23 0.20 0.20 0.19 0.20 0.21 0.14 0.12 0.11 0.10 0.09 0.06 0.03 0.03 0.04 0.07 0.08 0.07 0.05 0.04 0.04 0.04 0.04 0.04 0.04 0.04 0.04 0.03 0.02 0.01
0.08 0.12 0.17 0.23 0.28 0.31 0.33 0.35 0.39 0.41 0.37 0.32 0.25 0.22 0.23 0.18 0.18 0.17 0.14 0.12 0.11 0.07 0.05 0.07 0.11 0.05 0.04 0.05 0.06 0.06 0.07 0.07 0.05 0.04 0.04 0.05 0.06 0.05 0.04 0.03 0.03 0.03 0.02
0.04 0.09 0.17 0.29 0.35 0.35 0.40 0.45 0.45 0.41 0.34 0.31 0.29 0.23 0.19 0.17 0.16 0.14 0.12 0.10 0.08 0.07 0.05 0.07 0.10 0.09 0.08 0.03 0.03 0.03 0.06 0.07 0.05 0.04 0.04 0.05 0.07 0.07 0.05 0.03 0.02 0.02 0.02
0.03 0.07 0.14 0.19 0.23 0.27 0.30 0.35 0.39 0.38 0.34 0.29 0.26 0.22 0.17 0.16 0.15 0.10 0.11 0.09 0.07 0.06 0.06 0.06 0.07 0.09 0.08 0.10 0.04 0.02 0.03 0.06 0.06 0.06 0.05 0.04 0.04 0.03 0.03 0.03 0.03 0.02 0.02
0.02 0.05 0.12 0.17 0.20 0.24 0.26 0.27 0.26 0.27 0.28 0.26 0.22 0.18 0.14 0.11 0.11 0.09 0.06 0.04 0.03 0.04 0.05 0.04 0.04 0.04 0.03 0.06 0.07 0.05 0.02 0.03 0.06 0.08 0.07 0.05 0.03 0.02 0.01 0.02 0.02 0.02 0.02
0.01 0.02 0.06 0.10 0.16 0.22 0.28 0.27 0.26 0.25 0.23 0.21 0.19 0.15 0.10 0.09 0.09 0.09 0.07 0.03 0.02 0.02 0.02 0.03 0.02 0.04 0.02 0.02 0.04 0.04 0.02 0.01 0.03 0.06 0.07 0.06 0.04 0.02 0.02 0.02 0.03 0.02 0.01
0.00 0.01 0.02 0.04 0.08 0.13 0.17 0.21 0.27 0.28 0.26 0.21 0.19 0.18 0.14 0.09 0.06 0.08 0.10 0.07 0.03 0.01 0.01 0.02 0.02 0.01 0.01 0.01 0.02 0.01 0.00 0.00 0.01 0.02 0.04 0.05 0.05 0.04 0.03 0.04 0.07 0.08 0.05
0.00 0.00 0.00 0.01 0.02 0.05 0.08 0.12 0.17 0.22 0.26 0.25 0.20 0.20 0.20 0.16 0.07 0.05 0.05 0.06 0.05 0.01 0.00 0.01 0.01 0.01 0.01 0.01 0.01 0.00 0.00 0.00 0.00 0.01 0.02 0.03 0.04 0.04 0.05 0.06 0.09 0.11 0.11
0.00 0.00 0.00 0.00 0.01 0.02 0.03 0.06 0.09 0.16 0.22 0.26 0.25 0.22 0.19 0.15 0.10 0.06 0.04 0.02 0.02 0.02 0.02 0.01 0.01 0.01 0.01 0.02 0.01 0.00 0.00 0.00 0.00 0.00 0.01 0.01 0.02 0.03 0.04 0.05 0.06 0.09 0.11
0.00 0.00 0.00 0.00 0.00 0.01 0.02 0.02 0.04 0.07 0.13 0.19 0.24 0.28 0.25 0.16 0.13 0.11 0.06 0.04 0.05 0.05 0.04 0.03 0.02 0.01 0.01 0.02 0.01 0.00 0.00 0.00 0.00 0.00 0.00 0.01 0.01 0.03 0.03 0.03 0.04 0.05 0.06
0.00 0.00 0.00 0.00 0.00 0.00 0.01 0.01 0.02 0.03 0.06 0.11 0.16 0.23 0.26 0.23 0.17 0.14 0.10 0.07 0.07 0.07 0.06 0.05 0.04 0.03 0.03 0.02 0.00 0.01 0.01 0.00 0.00 0.00 0.00 0.00 0.01 0.02 0.02 0.03 0.04 0.05 0.05
0.00 0.00 0.00 0.00 0.00 0.00 0.01 0.01 0.01 0.02 0.04 0.06 0.10 0.16 0.22 0.25 0.24 0.19 0.16 0.11 0.07 0.07 0.08 0.07 0.06 0.04 0.03 0.01 0.01 0.01 0.00 0.00 0.00 0.00 0.00 0.00 0.00 0.01 0.01 0.02 0.02 0.03 0.04
0.01 0.00 0.00 0.00 0.00 0.00 0.01 0.01 0.01 0.01 0.02 0.04 0.07 0.11 0.16 0.22 0.27 0.28 0.22 0.17 0.13 0.10 0.11 0.12 0.11 0.08 0.04 0.01 0.01 0.01 0.01 0.00 0.00 0.00 0.00 0.00 0.00 0.01 0.01 0.01 0.01 0.02 0.02
0.01 0.01 0.01 0.01 0.01 0.00 0.01 0.01 0.01 0.01 0.01 0.02 0.04 0.08 0.13 0.19 0.23 0.28 0.30 0.26 0.20 0.18 0.15 0.17 0.14 0.10 0.07 0.04 0.03 0.02 0.01 0.00 0.00 0.00 0.00 0.00 0.00 0.00 0.01 0.01 0.01 0.01 0.01
0.01 0.01 0.01 0.01 0.02 0.01 0.01 0.01 0.01 0.01 0.01 0.02 0.02 0.04 0.08 0.14 0.20 0.25 0.30 0.32 0.28 0.25 0.22 0.19 0.18 0.15 0.10 0.07 0.05 0.02 0.01 0.00 0.00 0.00 0.00 0.00 0.00 0.00 0.01 0.01 0.01 0.01 0.01
0.02 0.02 0.02 0.02 0.02 0.02 0.02 0.01 0.01 0.02 0.02 0.01 0.02 0.03 0.05 0.08 0.13 0.21 0.27 0.32 0.36 0.36 0.33 0.26 0.22 0.20 0.13 0.08 0.05 0.03 0.01 0.00 0.00 0.00 0.00 0.00 0.00 0.00 0.00 0.00 0.00 0.00 0.00
0.02 0.03 0.03 0.04 0.04 0.03 0.02 0.02 0.03 0.02 0.03 0.02 0.02 0.02 0.03 0.06 0.09 0.13 0.21 0.29 0.35 0.39 0.39 0.35 0.29 0.22 0.15 0.08 0.04 0.04 0.01 0.01 0.00 0.00 0.00 0.00 0.00 0.00 0.00 0.00 0.00 0.00 0.00
0.04 0.05 0.05 0.05 0.05 0.03 0.02 0.03 0.03 0.03 0.04 0.05 0.04 0.03 0.02 0.03 0.06 0.09 0.13 0.21 0.30 0.36 0.39 0.37 0.36 0.31 0.19 0.12 0.07 0.05 0.02 0.00 0.00 0.00 0.00 0.00 0.00 0.00 0.00 0.00 0.00 0.00 0.00
0.06 0.06 0.06 0.06 0.07 0.06 0.04 0.04 0.04 0.04 0.06 0.08 0.08 0.07 0.03 0.01 0.03 0.05 0.07 0.11 0.18 0.25 0.31 0.36 0.38 0.37 0.32 0.22 0.14 0.07 0.04 0.02 0.01 0.00 0.00 0.00 0.00 0.00 0.00 0.00 0.00 0.00 0.00
0.07 0.08 0.07 0.08 0.10 0.08 0.06 0.04 0.04 0.04 0.06 0.08 0.09 0.09 0.07 0.05 0.04 0.04 0.05 0.06 0.09 0.14 0.18 0.23 0.29 0.35 0.40 0.35 0.23 0.14 0.08 0.05 0.02 0.00 0.00 0.00 0.00 0.00 0.00 0.00 0.00 0.00 0.00
0.08 0.09 0.10 0.11 0.13 0.13 0.10 0.05 0.04 0.05 0.07 0.07 0.08 0.09 0.09 0.07 0.05 0.03 0.05 0.06 0.06 0.09 0.14 0.18 0.22 0.25 0.29 0.35 0.32 0.21 0.12 0.05 0.02 0.01 0.00 0.00 0.00 0.00 0.00 0.00 0.00 0.00 0.00
0.08 0.09 0.09 0.11 0.13 0.15 0.11 0.04 0.03 0.06 0.09 0.09 0.11 0.11 0.08 0.08 0.07 0.03 0.03 0.05 0.06 0.07 0.10 0.14 0.18 0.19 0.18 0.21 0.25 0.21 0.12 0.06 0.03 0.01 0.00 0.00 0.00 0.00 0.00 0.00 0.00 0.00 0.00
MSLP
1011.68 1011.72 1011.59 1011.35 1011.05 1010.77 1010.57 1010.50 1010.57 1010.76 1011.04 1011.35 1011.64 1011.89 1012.08 1012.23 1012.36 1012.51 1012.69 1012.93 1013.24 1013.60 1014.01 1014.44 1014.87 1015.28 1015.67 1016.04 1016.39 1016.73 1017.07 1017.42 1017.78 1018.15 1018.53 1018.92 1019.31 1019.69 1020.07 1020.43 1020.77 1021.09 1021.40
1011.61 1011.62 1011.45 1011.15 1010.78 1010.40 1010.09 1009.91 1009.88 1010.01 1010.27 1010.60 1010.95 1011.29 1011.59 1011.84 1012.05 1012.24 1012.44 1012.66 1012.93 1013.25 1013.62 1014.01 1014.41 1014.81 1015.19 1015.55 1015.89 1016.22 1016.54 1016.87 1017.21 1017.57 1017.95 1018.34 1018.75 1019.16 1019.56 1019.95 1020.32 1020.68 1021.02
1011.56 1011.56 1011.38 1011.06 1010.64 1010.20 1009.82 1009.55 1009.44 1009.50 1009.71 1010.04 1010.42 1010.82 1011.18 1011.50 1011.75 1011.96 1012.14 1012.33 1012.55 1012.80 1013.11 1013.46 1013.83 1014.22 1014.60 1014.97 1015.32 1015.64 1015.96 1016.27 1016.59 1016.94 1017.31 1017.70 1018.11 1018.54 1018.96 1019.38 1019.79 1020.18 1020.56
1011.51 1011.50 1011.33 1011.03 1010.62 1010.17 1009.74 1009.42 1009.23 1009.23 1009.38 1009.67 1010.05 1010.45 1010.83 1011.16 1011.42 1011.60 1011.75 1011.87 1012.02 1012.20 1012.45 1012.75 1013.10 1013.49 1013.89 1014.28 1014.65 1014.99 1015.32 1015.63 1015.95 1016.28 1016.64 1017.03 1017.44 1017.87 1018.32 1018.76 1019.20 1019.63 1020.05
1011.39 1011.39 1011.27 1011.02 1010.66 1010.24 1009.83 1009.48 1009.25 1009.17 1009.26 1009.48 1009.80 1010.16 1010.51 1010.80 1011.01 1011.14 1011.21 1011.26 1011.32 1011.44 1011.62 1011.89 1012.23 1012.62 1013.05 1013.48 1013.89 1014.28 1014.63 1014.96 1015.28 1015.61 1015.96 1016.35 1016.76 1017.20 1017.66 1018.13 1018.60 1019.07 1019.52
1011.19 1011.22 1011.15 1010.99 1010.72 1010.37 1010.00 1009.66 1009.40 1009.27 1009.28 1009.42 1009.65 1009.93 1010.19 1010.40 1010.53 1010.58 1010.56 1010.52 1010.50 1010.54 1010.67 1010.90 1011.24 1011.66 1012.13 1012.61 1013.08 1013.51 1013.90 1014.26 1014.60 1014.94 1015.30 1015.69 1016.11 1016.56 1017.04 1017.53 1018.03 1018.52 1019.00
1010.91 1010.96 1010.96 1010.89 1010.73 1010.49 1010.19 1009.89 1009.63 1009.46 1009.40 1009.44 1009.57 1009.73 1009.89 1009.99 1010.02 1009.96 1009.85 1009.72 1009.61 1009.58 1009.67 1009.88 1010.22 1010.66 1011.17 1011.71 1012.23 1012.72 1013.16 1013.56 1013.93 1014.29 1014.66 1015.06 1015.49 1015.96 1016.46 1016.97 1017.49 1018.01 1018.51
1010.57 1010.63 1010.70 1010.72 1010.67 1010.54 1010.33 1010.09 1009.85 1009.66 1009.54 1009.51 1009.53 1009.58 1009.62 1009.61 1009.53 1009.37 1009.16 1008.95 1008.77 1008.68 1008.73 1008.92 1009.26 1009.72 1010.27 1010.84 1011.41 1011.95 1012.43 1012.87 1013.26 1013.65 1014.04 1014.46 1014.92 1015.41 1015.93 1016.46 1017.00 1017.53 1018.05
1010.22 1010.27 1010.38 1010.47 1010.52 1010.48 1010.37 1010.20 1010.01 1009.82 1009.67 1009.57 1009.51 1009.47 1009.40 1009.30 1009.12 1008.88 1008.59 1008.31 1008.07 1007.94 1007.95 1008.12 1008.45 1008.92 1009.47 1010.07 1010.67 1011.23 1011.74 1012.20 1012.62 1013.02 1013.44 1013.88 1014.36 1014.87 1015.42 1015.98 1016.53 1017.07 1017.59
1009.90 1009.93 1010.04 1010.17 1010.28 1010.32 1010.29 1010.19 1010.05 1009.88 1009.73 1009.60 1009.50 1009.39 1009.26 1009.09 1008.84 1008.54 1008.20 1007.87 1007.59 1007.43 1007.40 1007.55 1007.86 1008.31 1008.85 1009.44 1010.03 1010.59 1011.11 1011.57 1011.99 1012.41 1012.84 1013.30 1013.80 1014.33 1014.90 1015.47 1016.04 1016.59 1017.10
1009.63 1009.62 1009.70 1009.83 1009.97 1010.06 1010.08 1010.04 1009.95 1009.83 1009.70 1009.58 1009.47 1009.34 1009.18 1008.97 1008.70 1008.37 1008.01 1007.65 1007.35 1007.16 1007.11 1007.23 1007.50 1007.92 1008.43 1008.98 1009.54 1010.08 1010.56 1011.01 1011.42 1011.83 1012.25 1012.71 1013.22 1013.76 1014.34 1014.93 1015.50 1016.05 1016.55
1009.44 1009.36 1009.39 1009.49 1009.61 1009.71 1009.77 1009.77 1009.73 1009.66 1009.57 1009.48 1009.39 1009.27 1009.13 1008.92 1008.65 1008.33 1007.97 1007.61 1007.31 1007.11 1007.04 1007.13 1007.37 1007.74 1008.20 1008.70 1009.21 1009.70 1010.14 1010.54 1010.92 1011.30 1011.71 1012.15 1012.64 1013.18 1013.75 1014.33 1014.90 1015.44 1015.94
1009.31 1009.16 1009.12 1009.16 1009.23 1009.31 1009.37 1009.39 1009.39 1009.36 1009.33 1009.28 1009.23 1009.16 1009.05 1008.88 1008.64 1008.34 1008.01 1007.68 1007.40 1007.20 1007.13 1007.20 1007.41 1007.74 1008.15 1008.60 1009.05 1009.48 1009.87 1010.22 1010.55 1010.89 1011.25 1011.65 1012.11 1012.61 1013.15 1013.71 1014.26 1014.80 1015.29
1009.21 1008.99 1008.88 1008.85 1008.86 1008.89 1008.92 1008.95 1008.96 1008.96 1008.97 1008.98 1008.98 1008.96 1008.89 1008.77 1008.59 1008.34 1008.06 1007.77 1007.53 1007.36 1007.30 1007.37 1007.56 1007.86 1008.24 1008.64 1009.05 1009.43 1009.77 1010.07 1010.35 1010.63 1010.94 1011.28 1011.68 1012.13 1012.62 1013.13 1013.66 1014.17 1014.65
1009.11 1008.85 1008.67 1008.55 1008.50 1008.47 1008.46 1008.46 1008.47 1008.50 1008.53 1008.58 1008.62 1008.64 1008.63 1008.56 1008.44 1008.25 1008.03 1007.81 1007.61 1007.49 1007.46 1007.55 1007.75 1008.05 1008.41 1008.80 1009.18 1009.53 1009.84 1010.11 1010.35 1010.58 1010.82 1011.10 1011.43 1011.80 1012.23 1012.68 1013.16 1013.64 1014.11
1008.98 1008.68 1008.45 1008.28 1008.15 1008.06 1008.01 1007.97 1007.96 1007.98 1008.02 1008.09 1008.15 1008.21 1008.24 1008.22 1008.15 1008.03 1007.88 1007.72 1007.60 1007.53 1007.56 1007.69 1007.92 1008.24 1008.62 1009.02 1009.40 1009.76 1010.06 1010.32 1010.54 1010.74 1010.93 1011.15 1011.41 1011.70 1012.05 1012.43 1012.85 1013.29 1013.74
1008.78 1008.48 1008.21 1008.00 1007.82 1007.68 1007.57 1007.49 1007.45 1007.44 1007.47 1007.52 1007.60 1007.67 1007.73 1007.75 1007.73 1007.67 1007.59 1007.50 1007.45 1007.46 1007.55 1007.74 1008.02 1008.38 1008.80 1009.23 1009.66 1010.04 1010.38 1010.65 1010.88 1011.07 1011.25 1011.43 1011.63 1011.86 1012.14 1012.45 1012.81 1013.20 1013.62
1008.49 1008.19 1007.93 1007.68 1007.47 1007.29 1007.13 1007.01 1006.92 1006.88 1006.88 1006.92 1006.98 1007.05 1007.12 1007.18 1007.20 1007.20 1007.18 1007.17 1007.19 1007.27 1007.43 1007.68 1008.02 1008.43 1008.89 1009.38 1009.86 1010.30 1010.69 1011.02 1011.29 1011.51 1011.70 1011.88 1012.05 1012.25 1012.48 1012.74 1013.05 1013.39 1013.77
1008.11 1007.82 1007.55 1007.30 1007.07 1006.86 1006.67 1006.51 1006.38 1006.30 1006.26 1006.27 1006.31 1006.38 1006.46 1006.54 1006.61 1006.66 1006.71 1006.77 1006.86 1007.00 1007.21 1007.51 1007.89 1008.35 1008.86 1009.40 1009.94 1010.45 1010.91 1011.32 1011.66 1011.95 1012.20 1012.41 1012.61 1012.80 1013.02 1013.26 1013.53 1013.84 1014.18
1007.62 1007.34 1007.08 1006.83 1006.59 1006.36 1006.14 1005.95 1005.79 1005.67 1005.60 1005.58 1005.61 1005.68 1005.78 1005.88 1005.99 1006.10 1006.21 1006.33 1006.47 1006.67 1006.92 1007.25 1007.66 1008.14 1008.68 1009.26 1009.84 1010.42 1010.96 1011.46 1011.90 1012.29 1012.63 1012.92 1013.18 1013.43 1013.67 1013.92 1014.18 1014.48 1014.80
1007.03 1006.75 1006.49 1006.24 1006.00 1005.76 1005.52 1005.31 1005.12 1004.98 1004.89 1004.86 1004.89 1004.97 1005.09 1005.24 1005.40 1005.56 1005.72 1005.90 1006.09 1006.31 1006.59 1006.93 1007.33 1007.81 1008.35 1008.94 1009.56 1010.19 1010.80 1011.39 1011.94 1012.45 1012.90 1013.31 1013.68 1014.02 1014.33 1014.62 1014.92 1015.21 1015.52
1006.35 1006.07 1005.80 1005.54 1005.29 1005.04 1004.80 1004.57 1004.37 1004.22 1004.13 1004.11 1004.15 1004.26 1004.42 1004.62 1004.83 1005.06 1005.28 1005.49 1005.72 1005.96 1006.24 1006.56 1006.94 1007.39 1007.91 1008.48 1009.10 1009.76 1010.43 1011.10 1011.76 1012.39 1012.98 1013.53 1014.03 1014.48 1014.90 1015.27 1015.62 1015.95 1016.26
1005.64 1005.32 1005.03 1004.76 1004.50 1004.24 1003.99 1003.77 1003.57 1003.43 1003.35 1003.35 1003.43 1003.58 1003.79 1004.05 1004.32 1004.60 1004.88 1005.14 1005.38 1005.63 1005.89 1006.18 1006.53 1006.93 1007.39 1007.93 1008.54 1009.20 1009.91 1010.64 1011.39 1012.13 1012.85 1013.54 1014.18 1014.77 1015.30 1015.78 1016.21 1016.58 1016.92
1004.91 1004.56 1004.24 1003.96 1003.68 1003.42 1003.17 1002.95 1002.77 1002.65 1002.60 1002.64 1002.76 1002.96 1003.23 1003.54 1003.87 1004.20 1004.52 1004.81 1005.08 1005.32 1005.57 1005.83 1006.12 1006.47 1006.88 1007.38 1007.95 1008.60 1009.32 1010.09 1010.90 1011.73 1012.56 1013.37 1014.14 1014.85 1015.50 1016.08 1016.59 1017.04 1017.41
1004.22 1003.84 1003.50 1003.19 1002.91 1002.65 1002.42 1002.22 1002.06 1001.97 1001.96 1002.04 1002.20 1002.45 1002.76 1003.11 1003.48 1003.85 1004.20 1004.51 1004.79 1005.04 1005.27 1005.50 1005.76 1006.07 1006.44 1006.89 1007.43 1008.06 1008.78 1009.56 1010.41 1011.29 1012.19 1013.08 1013.94 1014.75 1015.50 1016.16 1016.75 1017.25 1017.68
1003.61 1003.20 1002.84 1002.53 1002.26 1002.01 1001.81 1001.64 1001.52 1001.47 1001.49 1001.60 1001.80 1002.06 1002.40 1002.77 1003.16 1003.54 1003.90 1004.23 1004.51 1004.76 1004.99 1005.21 1005.46 1005.74 1006.09 1006.52 1007.04 1007.65 1008.35 1009.13 1009.98 1010.88 1011.80 1012.73 1013.64 1014.50 1015.30 1016.03 1016.67 1017.23 1017.69
Thickness
5755 5753 5752 5751 5750 5749 5749 5747 5746 5746 5745 5745 5746 5747 5747 5747 5747 5749 5749 5748 5745 5744 5743 5742 5739 5737 5736 5735 5734 5732 5732 5731 5729 5728 5726 5725 5724 5724 5723 5722 5721 5721 5720
5749 5747 5745 5745 5744 5743 5743 5743 5742 5742 5742 5742 5743 5744 5744 5745 5745 5746 5745 5744 5743 5742 5741 5740 5739 5737 5736 5735 5734 5733 5732 5731 5729 5728 5727 5725 5724 5724 5723 5722 5722 5721 5720
5743 5742 5740 5739 5739 5738 5737 5737 5736 5736 5737 5738 5738 5739 5740 5741 5742 5742 5742 5742 5741 5740 5740 5740 5738 5737 5736 5735 5734 5733 5732 5731 5729 5729 5727 5726 5725 5724 5723 5723 5722 5721 5721
5735 5735 5734 5734 5734 5733 5732 5730 5729 5727 5729 5731 5731 5732 5734 5736 5738 5738 5740 5741 5741 5740 5739 5739 5739 5738 5737 5736 5734 5733 5733 5731 5730 5729 5728 5727 5727 5726 5725 5723 5723 5722 5721
5727 5727 5728 5728 5727 5727 5726 5725 5724 5723 5721 5723 5724 5727 5729 5731 5734 5736 5737 5739 5740 5740 5740 5740 5739 5739 5737 5736 5735 5734 5734 5733 5731 5730 5729 5728 5727 5727 5725 5724 5723 5722 5722
5718 5718 5720 5721 5721 5720 5720 5719 5718 5717 5716 5716 5719 5723 5726 5728 5730 5732 5735 5737 5739 5740 5741 5742 5740 5739 5738 5737 5737 5736 5735 5734 5733 5731 5730 5729 5728 5727 5726 5725 5724 5723 5722
5709 5708 5709 5711 5711 5711 5711 5711 5711 5710 5710 5713 5711 5713 5719 5725 5728 5730 5733 5735 5738 5740 5742 5743 5742 5741 5740 5738 5738 5737 5737 5736 5734 5733 5731 5730 5728 5728 5727 5726 5725 5724 5723
5701 5700 5699 5700 5701 5702 5703 5704 5704 5703 5704 5707 5705 5703 5705 5713 5722 5729 5730 5732 5737 5740 5742 5743 5743 5742 5742 5741 5739 5738 5738 5737 5736 5735 5733 5731 5730 5729 5728 5727 5725 5724 5723
5692 5691 5690 5691 5691 5692 5693 5696 5697 5696 5695 5699 5702 5701 5700 5703 5714 5724 5728 5731 5735 5737 5740 5744 5744 5744 5743 5743 5742 5741 5740 5739 5738 5737 5735 5733 5732 5730 5728 5727 5725 5724 5722
5684 5683 5682 5681 5682 5683 5683 5686 5689 5689 5689 5690 5695 5701 5704 5706 5705 5710 5719 5728 5732 5734 5737 5741 5744 5745 5745 5744 5744 5744 5742 5740 5739 5738 5736 5735 5733 5731 5729 5727 5725 5723 5722
5675 5675 5674 5673 5672 5672 5674 5676 5678 5680 5681 5683 5686 5690 5695 5700 5704 5703 5704 5714 5722 5729 5734 5737 5741 5743 5744 5744 5745 5744 5743 5741 5740 5739 5737 5736 5734 5732 5730 5727 5725 5723 5722
5667 5667 5666 5664 5663 5663 5663 5665 5667 5670 5672 5675 5680 5684 5685 5688 5694 5698 5700 5705 5710 5720 5728 5732 5735 5738 5741 5742 5743 5742 5742 5741 5740 5739 5737 5736 5734 5732 5730 5728 5726 5723 5722
5654 5655 5655 5654 5654 5653 5654 5655 5657 5659 5662 5665 5670 5675 5679 5683 5690 5694 5697 5701 5707 5715 5721 5725 5730 5733 5735 5736 5736 5737 5737 5738 5738 5737 5737 5736 5734 5732 5730 5728 5726 5723 5721
5644 5645 5645 5645 5645 5645 5645 5646 5647 5649 5653 5656 5660 5665 5670 5676 5682 5687 5692 5695 5696 5703 5710 5716 5723 5727 5730 5731 5730 5731 5731 5733 5734 5735 5735 5734 5733 5731 5730 5728 5725 5723 5721
5636 5636 5635 5634 5635 5635 5636 5636 5637 5639 5642 5645 5650 5654 5660 5666 5672 5679 5685 5690 5690 5689 5696 5707 5712 5720 5723 5723 5723 5725 5726 5727 5730 5731 5732 5732 5731 5729 5728 5726 5724 5721 5719
5625 5625 5625 5624 5624 5625 5626 5627 5627 5630 5632 5635 5639 5643 5649 5655 5662 5669 5675 5681 5687 5688 5690 5702 5708 5713 5715 5716 5716 5718 5719 5721 5723 5725 5727 5728 5727 5726 5725 5723 5721 5718 5715
5615 5614 5613 5612 5612 5612 5614 5615 5617 5619 5621 5625 5629 5634 5638 5643 5650 5657 5664 5670 5676 5683 5685 5693 5701 5705 5706 5707 5707 5709 5711 5713 5715 5717 5719 5721 5722 5721 5720 5718 5716 5714 5711
5604 5603 5601 5600 5599 5599 5600 5601 5603 5606 5609 5613 5617 5621 5627 5632 5638 5645 5652 5658 5666 5674 5678 5680 5687 5693 5696 5699 5700 5702 5704 5705 5707 5708 5711 5713 5714 5714 5713 5712 5710 5708 5706
5594 5591 5589 5587 5585 5584 5584 5586 5588 5591 5595 5600 5605 5609 5615 5621 5627 5634 5640 5647 5655 5664 5670 5673 5677 5683 5686 5690 5691 5693 5695 5696 5698 5699 5701 5703 5705 5706 5705 5704 5703 5701 5699
5583 5580 5577 5574 5572 5570 5569 5570 5572 5575 5579 5584 5591 5597 5604 5610 5616 5623 5630 5637 5644 5650 5658 5664 5668 5673 5676 5680 5683 5683 5683 5687 5690 5692 5692 5693 5695 5696 5695 5695 5694 5693 5691
5573 5569 5565 5561 5558 5556 5556 5556 5557 5560 5564 5569 5576 5584 5591 5599 5606 5612 5619 5626 5634 5640 5646 5652 5658 5663 5667 5671 5675 5677 5677 5680 5682 5684 5684 5685 5686 5686 5685 5685 5685 5684 5683
5562 5558 5553 5549 5546 5544 5544 5542 5542 5545 5550 5555 5561 5569 5577 5586 5594 5601 5608 5616 5623 5631 5637 5644 5650 5656 5662 5668 5671 5672 5672 5673 5673 5677 5680 5680 5681 5680 5678 5676 5675 5675 5674
5554 5549 5544 5540 5536 5533 5530 5529 5529 5531 5536 5542 5548 5554 5562 5575 5582 5589 5596 5604 5612 5620 5629 5637 5643 5650 5657 5663 5667 5666 5668 5670 5672 5673 5676 5673 5674 5671 5667 5665 5666 5667 5666
5546 5541 5537 5532 5529 5525 5522 5519 5518 5520 5525 5531 5537 5542 5549 5560 5572 5580 5587 5593 5601 5610 5619 5627 5637 5644 5650 5656 5661 5663 5663 5664 5664 5667 5671 5666 5664 5661 5657 5655 5656 5657 5658
5541 5536 5532 5528 5523 5520 5515 5511 5509 5512 5516 5521 5527 5533 5541 5549 5560 5570 5577 5585 5592 5600 5608 5618 5627 5634 5640 5647 5652 5654 5655 5656 5654 5657 5662 5661 5656 5652 5648 5646 5646 5648 5649
5537 5533 5529 5524 5520 5517 5512 5507 5504 5507 5509 5514 5519 5526 5534 5541 5550 5558 5567 5574 5582 5591 5600 5609 5616 5624 5631 5638 5644 5651 5654 5653 5651 5650 5654 5655 5651 5650 5643 5639 5639 5640 5640